Вернуться в каталог

SL-8 DEB

АктивенPO
NORAD 45523·DEBRIS·🇷🇺 Russia

Запущен Feb 27, 1990 с Plesetsk Cosmodrome

Loading…

Ближайшие Пролёты (ближайшие 24 часа)

TLE

СвежийSource: Space-Track

Эпоха: Sep 12, 2026, 12:52 UTC

1 45523U 90017D   26255.53616644  .00000151  00000-0  13586-3 0  9994
2 45523  82.9569 342.7553 0043590  83.7744 276.8377 13.77172931643311

Отслеживайте SL-8 DEB в реальном времени с AllMySat

Download on the App Store